Wind_Speed
21 19 19 18 19 22 23 22 19 19 19 19 18 19 19 15 10 7 7 8 10 10 7 3 3 5 5 5 4 3 4 5 6 7 8 9 10 9 7 7 8 10 12 15 17 18 19 20 20 17 16 16 16 16 16 17 18 19 22 24 25 25 24 24 24 24 20 17 20 21 22 18 15 15 19 23 26 26 29 35 39 42 46 50 52
19 18 17 17 18 19 19 19 19 20 21 21 21 21 17 11 7 7 8 9 9 6 2 4 6 6 5 5 4 3 4 5 6 7 8 9 10 9 7 7 9 10 13 15 17 18 19 20 19 17 17 17 17 17 17 17 18 19 20 22 25 26 25 25 24 24 22 19 19 19 19 19 17 16 18 22 23 24 27 32 35 38 42 47 50
16 16 17 18 19 19 18 18 18 18 20 19 18 15 10 7 7 8 8 7 5 3 6 7 7 6 6 5 3 3 5 6 6 7 8 9 9 8 7 8 10 12 13 15 17 18 19 19 18 18 18 18 18 18 18 18 18 19 20 21 23 25 26 25 24 25 24 21 20 21 19 20 20 17 17 19 20 21 25 30 32 36 39 44 48
15 14 15 16 16 17 17 17 16 16 16 14 11 9 7 6 7 7 5 4 5 7 8 7 6 6 6 5 3 4 5 6 6 7 8 9 8 7 7 9 11 13 14 15 17 18 19 19 18 18 19 19 19 19 19 19 19 19 19 20 22 24 25 25 24 24 26 23 21 22 19 17 19 19 18 18 18 19 24 29 32 35 37 40 45
17 15 14 13 13 13 13 13 13 13 12 10 8 6 5 5 5 5 5 7 8 8 7 6 6 6 6 5 4 4 5 5 6 7 8 8 8 7 7 9 12 13 14 16 17 18 18 18 18 19 19 20 20 20 20 20 20 20 20 20 21 23 24 25 24 24 26 25 23 22 19 14 15 18 19 18 15 17 22 27 31 34 35 38 41
19 17 15 14 13 13 13 13 13 12 11 11 9 8 7 7 7 8 9 10 9 8 6 6 7 7 6 5 4 4 5 5 6 7 8 8 7 7 7 10 13 14 15 16 17 17 18 18 19 19 20 20 20 20 21 21 21 21 21 21 21 22 23 24 24 24 25 26 25 23 21 17 14 17 20 19 15 16 22 26 29 33 34 35 37
21 20 18 16 15 14 14 14 14 13 13 12 12 11 11 11 12 11 10 9 8 7 7 8 7 6 5 5 5 5 5 5 7 8 8 7 7 7 8 11 14 14 16 17 17 17 17 18 19 20 20 20 21 21 22 22 22 22 22 21 21 22 23 24 24 24 25 25 25 24 23 22 17 15 19 19 18 19 22 25 27 30 32 33 35
23 21 20 18 18 17 16 16 16 15 14 14 14 14 14 14 13 11 9 8 8 8 8 7 6 6 5 5 6 5 5 6 7 8 7 7 7 7 9 12 14 15 16 17 18 18 18 18 19 19 20 20 21 21 22 23 23 23 23 23 22 22 22 23 24 25 25 25 25 25 24 23 19 15 17 17 18 20 21 23 24 27 29 31 32
24 23 22 21 20 19 19 18 18 17 17 16 16 16 14 13 12 10 9 8 8 8 7 7 6 6 6 6 5 5 5 6 8 8 7 7 8 9 11 13 15 16 16 17 18 19 20 19 19 19 19 20 20 21 22 23 23 23 24 24 23 22 22 22 24 24 25 25 25 25 24 22 19 15 16 17 18 19 19 20 21 23 25 27 28
24 23 22 22 21 21 21 20 19 18 17 16 15 14 13 12 11 10 9 9 8 8 7 7 7 7 7 6 6 5 6 7 7 8 7 7 9 11 12 14 15 16 15 16 18 19 20 20 19 18 18 18 19 20 21 23 24 24 24 24 24 23 22 21 23 23 24 25 25 25 24 23 20 16 16 16 17 17 17 18 18 19 21 23 24
23 22 22 21 21 20 20 19 18 17 16 15 14 13 12 11 10 10 9 9 8 8 8 8 8 7 7 6 6 6 6 7 7 8 8 8 10 12 13 15 15 15 15 16 17 18 19 20 19 17 16 17 17 19 21 23 25 26 25 25 24 24 22 21 22 23 24 24 24 24 24 24 22 18 16 15 15 15 15 15 16 16 17 19 21
22 22 21 20 20 19 18 17 17 16 15 14 13 13 12 11 11 10 10 9 9 9 8 7 7 7 6 6 6 7 7 7 8 9 9 9 10 12 14 14 15 15 15 16 17 18 18 19 19 18 17 16 15 17 20 21 24 27 27 26 24 24 23 21 21 22 23 23 23 23 23 24 23 18 17 16 14 13 13 13 13 14 15 16 18
21 21 20 20 19 18 18 17 16 15 15 14 14 13 13 12 12 11 10 10 9 8 7 7 7 7 7 7 7 8 8 8 9 10 10 10 11 12 13 14 14 14 15 15 17 17 18 19 18 19 20 18 14 15 17 19 22 25 27 27 25 24 22 21 21 22 22 23 22 22 22 23 23 19 17 17 15 13 12 12 12 12 13 14 15
21 20 20 19 18 18 17 17 16 15 15 14 14 13 12 12 11 10 9 9 8 8 8 8 8 8 8 8 9 9 9 9 9 10 11 11 11 12 13 13 13 13 14 15 16 17 18 19 17 18 22 20 15 14 15 18 20 22 26 27 26 24 22 21 21 21 22 22 21 21 21 22 23 20 17 18 17 14 12 12 12 12 12 12 13
20 19 19 18 18 17 17 16 15 15 14 14 13 12 11 11 11 10 10 9 9 8 8 8 8 8 8 8 9 9 9 9 9 10 10 11 11 12 12 12 12 13 14 15 16 17 18 19 17 17 21 22 18 16 15 16 18 20 23 26 26 24 22 21 20 21 21 21 21 20 20 21 22 21 18 18 19 16 13 12 12 13 13 13 13
20 19 19 18 17 17 17 16 15 14 14 13 11 11 11 10 10 10 10 10 9 9 8 8 7 8 8 8 9 9 9 9 9 9 10 10 10 11 11 12 12 13 14 14 15 17 18 18 16 16 19 21 20 19 17 16 17 18 21 25 27 24 22 21 20 20 20 20 20 20 19 20 22 21 19 19 19 18 15 12 12 13 13 13 14
21 21 20 19 18 17 17 16 16 15 14 13 12 12 11 11 11 11 11 10 10 9 9 8 8 8 8 8 8 9 9 9 9 10 10 10 10 11 11 11 12 13 13 14 15 17 18 18 16 15 17 19 20 20 19 18 17 17 19 24 26 24 22 21 20 20 20 19 20 19 19 19 21 21 19 19 19 19 17 14 12 13 13 14 14
22 21 21 20 19 19 19 18 17 17 16 15 15 14 14 13 13 13 12 11 11 10 10 10 10 10 10 9 9 9 9 9 9 9 9 10 10 10 11 11 12 13 13 14 15 16 17 18 17 15 16 17 18 19 19 18 18 18 18 22 25 24 22 21 20 20 19 19 19 18 18 19 20 20 20 19 19 19 18 16 13 13 14 14 14
22 22 21 21 21 21 20 20 20 19 19 18 17 16 16 15 15 14 14 13 12 12 11 11 11 11 11 11 10 10 9 9 9 8 8 8 9 10 10 11 12 13 13 13 14 15 15 16 17 16 15 17 18 18 18 18 18 18 18 21 24 23 22 21 19 19 19 19 19 18 18 19 20 20 20 19 19 19 19 17 15 14 14 14 14
23 22 22 21 22 22 22 22 22 21 21 20 19 18 18 17 17 16 16 15 14 14 13 12 12 12 12 12 11 11 11 10 10 9 9 9 9 10 11 12 12 13 13 13 13 14 13 14 16 16 15 18 19 17 16 17 17 17 18 20 23 23 22 21 19 19 19 19 19 17 17 18 19 20 19 19 19 19 19 19 17 15 15 15 14
23 23 22 21 21 22 22 22 22 22 21 21 21 20 20 20 19 19 18 17 17 16 15 14 14 13 12 12 12 11 11 11 11 11 10 10 10 10 11 11 11 12 12 12 13 14 13 13 14 15 15 16 16 15 15 15 16 16 18 19 21 22 22 20 19 18 18 19 18 17 17 18 19 20 19 19 19 18 19 19 19 18 16 16 15
24 23 22 22 21 21 21 21 21 21 21 21 21 21 21 21 21 20 20 19 19 18 17 17 16 15 14 13 12 12 11 11 11 11 10 10 10 10 10 10 10 11 11 11 12 13 12 12 13 14 14 14 14 14 13 14 15 16 17 19 21 22 21 20 18 18 18 18 18 17 17 18 20 20 20 19 19 19 19 19 20 19 18 17 16
24 24 23 22 21 21 21 21 21 21 21 21 21 21 21 21 21 21 21 20 20 19 19 19 18 17 16 15 14 13 13 12 11 11 11 11 11 11 11 11 11 10 10 11 11 11 11 11 12 12 12 12 14 15 14 14 14 16 18 19 20 21 20 19 18 18 18 18 18 18 18 20 21 21 20 19 19 19 19 19 20 20 19 18 17
22 23 23 22 21 20 20 20 20 20 20 21 21 21 21 21 21 21 21 21 21 20 20 20 20 19 19 18 17 16 15 14 13 13 13 12 12 12 12 12 12 11 11 11 11 11 10 10 11 10 10 12 14 14 15 15 15 17 18 19 20 20 19 18 18 18 18 18 19 20 20 21 22 22 21 20 19 19 19 19 20 20 20 19 18
20 21 22 22 21 20 19 19 19 19 20 20 20 21 21 21 21 21 21 21 21 21 21 21 21 20 20 19 19 18 18 17 16 15 15 15 15 14 14 14 14 13 13 13 12 12 12 12 12 12 12 14 16 16 15 17 18 19 19 19 20 19 19 19 19 19 19 20 21 22 22 23 23 23 21 20 19 19 19 19 20 20 20 20 20
18 19 19 20 20 20 19 19 19 19 19 19 20 20 20 21 21 21 21 21 21 21 21 22 21 21 21 21 20 20 20 19 18 18 18 18 17 17 17 16 16 16 16 15 15 14 14 14 14 15 16 17 19 19 19 20 20 21 21 21 20 20 20 20 20 21 21 22 23 24 24 24 24 23 22 21 20 19 19 20 20 20 21 21 21
17 17 17 18 18 19 19 18 18 18 18 19 19 19 20 20 21 21 21 22 22 22 22 22 22 22 22 22 22 21 21 21 20 20 19 19 19 19 19 18 18 18 18 17 17 16 17 17 17 19 19 20 22 23 23 23 22 22 24 24 22 21 21 22 23 24 25 26 26 26 26 26 25 24 23 21 20 20 20 20 20 21 21 21 22
16 16 16 16 16 17 18 18 18 18 17 18 18 18 19 20 20 21 21 22 22 23 23 23 23 23 23 23 23 23 23 22 22 22 21 21 21 21 21 21 21 20 18 19 19 19 20 20 20 21 22 23 24 25 25 23 22 23 24 24 23 22 24 25 26 27 28 29 30 30 30 29 28 27 25 24 22 21 21 20 20 21 21 22 22
15 16 16 16 15 15 16 17 17 17 17 17 17 18 18 19 19 20 21 22 23 23 24 24 24 24 24 25 25 25 25 25 25 24 24 23 23 23 24 23 23 22 20 21 21 20 21 22 22 23 24 25 27 26 26 25 25 26 26 26 26 25 27 29 29 31 32 33 33 33 33 33 32 30 29 27 26 25 24 23 22 22 22 22 23
14 14 15 15 15 14 14 15 16 16 17 17 17 17 17 17 18 19 20 21 22 23 24 24 24 25 25 25 26 27 27 27 27 27 27 26 26 26 26 25 25 24 23 23 22 20 21 23 24 26 26 27 28 27 28 27 27 29 29 28 29 28 30 31 32 34 35 35 36 35 36 36 35 34 33 31 30 29 29 28 27 26 26 26 26
12 13 13 14 14 13 13 13 13 14 16 16 16 16 16 16 17 17 18 19 20 21 22 23 24 24 24 25 26 27 27 28 28 29 29 29 28 28 28 27 26 25 25 24 23 22 24 25 26 27 27 28 28 28 29 29 28 30 30 30 31 32 33 33 34 36 36 37 37 37 38 38 38 37 36 36 35 34 33 33 32 31 31 30 30
11 11 11 12 13 13 12 12 12 12 13 14 15 15 16 16 16 16 17 17 18 19 20 21 22 23 24 24 26 27 28 28 29 29 30 30 30 30 29 28 27 26 25 25 25 25 26 27 27 28 27 28 29 29 30 30 29 31 31 31 32 33 34 34 35 36 37 38 39 39 39 39 39 39 39 38 38 38 37 37 37 36 36 35 35
10 9 9 10 11 11 11 11 10 10 10 11 12 13 14 15 15 15 15 15 16 17 18 19 20 21 22 23 24 25 26 27 28 28 29 29 30 30 29 29 28 27 27 26 26 27 27 27 27 27 26 27 28 29 30 30 30 31 31 32 33 33 34 34 35 36 37 39 39 40 40 41 41 40 40 40 40 40 40 40 40 40 40 40 40
9 8 8 8 8 9 10 9 9 9 9 9 10 10 11 12 13 13 14 14 15 15 16 17 18 19 20 21 22 23 24 25 26 27 27 28 28 29 29 28 28 27 27 27 27 27 27 27 26 26 26 27 28 28 29 30 30 31 31 32 32 33 33 34 35 35 37 38 39 39 40 41 41 41 41 41 41 41 41 42 42 42 42 42 42
7 7 7 6 6 6 7 8 8 7 7 7 7 8 8 9 10 11 11 12 13 13 14 14 15 16 17 18 20 21 22 23 24 25 25 26 27 27 27 27 27 27 27 27 27 27 26 26 26 26 27 27 28 28 29 29 29 30 31 31 31 32 32 32 33 34 34 35 36 36 37 38 38 38 38 39 39 40 40 41 41 42 42 42 42
4 5 5 5 4 5 5 5 6 6 6 6 5 5 5 6 6 7 8 9 10 11 11 12 13 13 14 16 17 18 19 20 21 22 23 24 25 26 26 26 25 25 26 26 26 26 25 25 26 26 27 27 26 26 27 27 28 28 29 29 29 29 29 30 30 30 31 31 31 32 33 33 33 33 33 34 34 35 35 36 37 37 38 38 38
2 1 2 3 3 3 3 4 4 5 5 5 4 3 3 3 3 4 4 6 7 8 9 10 10 11 12 13 14 15 16 17 18 19 20 21 23 24 24 25 24 24 24 24 24 24 25 25 25 25 25 25 24 25 25 25 25 25 25 26 26 26 26 26 27 27 27 28 28 28 29 29 29 29 29 29 29 30 30 30 31 31 32 32 32
6 5 4 3 2 2 3 3 4 5 5 5 5 4 3 1 1 1 2 3 4 5 6 7 8 9 10 10 11 12 12 13 14 15 16 18 20 21 22 23 23 22 22 23 23 23 24 24 24 23 23 23 22 22 23 23 23 22 22 22 22 22 22 23 23 24 24 25 25 25 25 26 26 26 26 26 26 26 26 26 27 27 27 27 27
9 8 8 7 5 4 3 3 4 5 5 6 6 6 5 4 3 2 1 1 2 2 3 4 4 6 7 7 8 8 9 9 10 11 13 14 16 17 18 20 20 20 21 21 22 22 23 23 22 21 21 20 20 20 20 20 20 19 19 18 18 18 18 19 19 20 20 21 21 21 21 22 22 23 23 24 24 24 24 24 24 24 24 24 25
13 12 11 11 9 7 6 5 5 5 6 6 6 7 7 6 5 4 3 3 3 3 3 2 2 2 3 3 4 4 4 5 6 7 9 11 12 13 14 15 17 18 19 20 21 22 22 22 20 20 19 17 17 17 16 16 16 16 16 15 15 14 15 15 15 15 16 16 16 17 17 17 18 18 19 19 20 21 21 21 21 21 21 21 22
17 16 15 13 12 11 10 9 8 7 7 7 7 7 7 7 7 7 6 5 5 5 5 5 4 3 2 2 1 1 0 1 2 4 6 7 9 9 10 11 12 14 16 17 19 21 22 21 19 18 17 15 14 13 13 13 12 12 12 11 11 11 11 11 11 11 12 12 12 12 13 13 13 14 14 15 16 16 17 17 17 17 17 17 18
20 20 18 16 14 13 13 12 11 10 10 10 10 9 8 8 8 8 8 8 7 7 8 8 7 7 6 5 4 4 3 2 2 2 3 4 5 6 6 7 7 9 11 14 16 18 19 19 18 17 15 14 13 11 10 10 9 9 8 8 8 8 8 8 8 8 8 8 9 9 9 9 9 10 11 11 12 13 13 13 14 14 13 14 14
22 22 20 18 17 16 15 15 14 13 12 12 13 13 12 11 10 9 9 9 10 9 9 9 9 9 9 9 8 7 6 5 4 3 2 2 1 2 3 4 5 5 6 9 11 14 16 17 17 16 15 14 13 11 10 9 8 7 6 6 4 4 4 4 4 4 4 5 5 6 6 7 7 7 8 8 9 10 10 10 11 11 12 12 12
23 23 21 20 19 19 17 17 18 17 16 16 16 16 15 14 13 12 12 11 11 11 11 11 11 10 10 11 11 11 10 9 7 5 4 4 4 3 3 4 4 5 6 7 9 11 13 14 15 15 15 14 13 12 11 11 10 9 8 7 5 4 2 1 0 1 2 3 3 4 4 5 6 6 6 7 7 8 9 9 10 10 10 11 11
26 25 24 23 23 22 21 21 21 20 21 21 21 20 19 17 16 14 14 14 13 13 13 12 12 12 12 12 12 13 13 11 10 8 6 6 6 6 6 6 6 7 9 10 11 11 12 13 14 15 15 15 15 14 14 13 13 12 11 10 9 8 7 6 4 4 4 5 6 6 7 7 7 8 8 8 9 9 10 10 11 11 11 12 12
30 28 27 27 28 27 26 26 25 25 25 24 24 24 23 21 19 17 16 16 16 16 15 15 14 13 13 13 14 14 14 13 12 11 10 9 8 8 9 9 9 10 11 12 13 14 14 14 15 16 17 17 17 16 16 16 16 15 15 14 13 13 12 11 10 9 9 9 9 10 10 10 11 11 11 12 12 13 13 13 14 14 14 14 13
32 32 31 31 31 31 31 30 28 28 28 27 26 27 27 25 23 21 19 19 18 18 18 17 17 16 14 14 15 16 16 15 14 13 12 12 11 10 10 11 11 12 13 14 15 16 16 16 16 17 18 18 18 18 19 19 19 19 18 18 18 17 15 15 14 13 13 13 13 13 13 13 13 13 14 15 15 15 16 16 16 16 16 16 15
35 35 35 35 35 35 35 34 33 32 32 30 29 29 29 29 28 25 23 22 21 20 20 20 20 19 18 16 16 16 18 18 17 16 15 14 14 13 13 12 13 13 14 15 15 16 17 17 18 18 18 19 19 20 20 21 22 22 22 22 22 21 20 19 19 18 18 18 18 17 17 17 17 16 17 18 18 18 18 18 17 18 18 18 18
38 37 37 37 38 39 37 37 38 38 35 34 32 31 30 31 31 29 27 25 24 23 23 22 22 22 21 20 19 18 19 19 18 18 17 17 16 15 15 15 14 14 15 16 16 15 16 18 19 19 19 19 19 20 21 22 24 25 25 24 25 25 24 23 23 22 22 22 23 23 21 21 21 21 20 21 21 21 22 22 21 20 20 21 21
41 40 39 40 41 41 40 41 43 42 39 38 35 34 33 32 32 32 30 29 27 26 26 25 25 24 24 23 22 22 22 21 20 20 19 19 18 17 17 17 17 16 17 18 17 17 17 17 18 19 20 20 20 21 22 23 25 26 27 27 27 28 28 27 26 26 25 24 25 27 26 24 24 24 24 24 24 24 25 26 26 24 23 23 23
44 43 43 44 45 43 41 42 45 43 41 40 39 38 38 36 34 33 32 31 29 28 28 28 28 27 26 26 26 25 25 24 23 23 22 21 20 19 18 18 18 18 19 19 20 20 20 19 19 19 19 20 20 21 22 23 25 27 28 29 29 30 31 31 29 29 29 27 26 28 29 28 28 28 27 28 28 28 29 30 31 30 28 27 26
Wind_Direction
198 200 199 197 193 196 204 209 214 217 211 210 217 225 235 245 253 267 278 280 280 280 282 265 150 143 133 105 82 64 55 48 38 29 22 18 15 12 17 33 35 27 21 18 20 23 23 20 17 16 18 22 25 27 30 33 32 29 28 27 27 28 28 28 26 22 22 18 23 50 66 59 52 50 41 34 23 20 30 32 32 35 34 37 46
184 188 188 186 187 192 198 204 211 216 216 221 228 232 237 241 246 256 265 270 271 267 224 148 142 135 112 86 71 46 38 38 32 28 21 15 10 8 16 30 33 30 21 18 21 24 24 22 20 21 25 27 27 27 30 33 33 30 28 28 27 27 28 28 28 25 22 22 26 43 61 61 61 61 57 45 28 26 36 37 38 42 43 45 52
162 174 181 184 188 193 200 207 212 215 219 224 226 225 225 230 242 250 254 257 245 181 145 140 136 119 95 80 67 38 30 29 28 26 18 10 7 10 21 31 33 31 22 19 23 24 26 26 25 28 30 30 29 28 30 33 34 32 30 29 28 27 28 27 27 26 23 23 26 33 44 55 60 61 64 57 38 34 42 42 44 49 51 53 58
134 150 163 174 184 191 200 207 210 209 209 207 203 199 207 222 233 235 230 200 157 141 135 130 119 97 84 77 61 42 28 25 26 21 14 6 7 18 27 33 37 31 22 21 24 25 29 31 31 33 33 32 31 29 30 33 35 34 32 31 29 28 28 27 27 26 24 23 26 29 34 52 61 59 67 67 50 45 50 50 52 55 58 61 64
109 119 130 144 157 167 177 185 188 187 181 173 166 168 181 191 190 173 152 140 135 129 122 109 90 79 77 73 57 39 26 24 21 13 10 6 9 23 29 38 41 32 25 25 25 27 32 36 36 36 35 34 33 31 31 33 35 36 34 33 32 29 28 28 28 27 25 23 24 25 29 48 63 62 69 73 65 60 61 61 60 60 61 66 70
93 99 107 117 128 138 147 153 155 152 146 140 139 142 145 143 137 133 131 129 124 113 100 84 77 74 74 68 50 32 21 17 9 7 9 8 17 25 29 45 46 35 29 28 27 30 36 39 39 37 37 36 34 33 32 33 35 36 36 35 34 31 29 28 28 29 27 24 24 24 26 37 56 68 68 71 80 79 73 71 69 66 64 67 73
84 90 96 104 111 116 121 123 121 120 121 124 126 129 131 128 125 123 121 115 106 93 81 75 72 70 64 52 37 28 19 7 3 7 9 13 26 29 37 51 48 39 35 32 31 33 37 40 40 39 37 37 35 32 31 33 35 36 36 36 36 33 30 28 28 30 29 25 25 27 27 33 46 67 70 73 86 87 80 78 76 73 69 68 72
80 84 89 94 98 102 105 107 107 110 115 119 120 121 122 120 117 113 105 95 85 79 74 68 63 55 45 36 33 31 15 2 2 8 10 17 33 39 47 54 49 44 41 37 37 36 38 39 39 39 38 38 37 33 31 31 34 36 37 37 37 35 32 29 27 29 31 27 26 28 30 33 43 60 67 74 87 88 85 84 82 79 75 72 73
81 83 85 89 92 96 99 102 106 110 112 114 114 113 112 110 104 98 90 82 77 72 65 57 49 43 38 35 36 29 9 4 8 13 17 28 46 54 56 55 51 49 45 43 43 41 38 36 37 39 38 39 39 36 33 31 33 35 36 36 36 37 34 31 29 29 31 30 27 28 30 34 45 62 70 78 90 92 90 88 86 84 80 77 76
83 85 86 88 90 92 95 98 100 103 104 104 104 102 100 97 93 89 82 76 71 64 57 51 47 45 45 40 34 24 12 11 17 24 34 47 60 64 59 54 52 49 46 46 46 43 39 35 33 34 37 39 40 40 37 34 33 34 35 36 35 36 36 34 32 31 32 33 30 28 31 34 43 64 76 83 93 95 93 92 90 87 85 82 81
84 86 87 89 91 92 94 96 97 97 97 96 95 93 90 87 83 80 77 72 68 62 58 56 53 52 48 39 32 25 20 26 39 47 54 61 69 69 61 56 52 47 44 44 44 42 39 36 31 29 31 34 39 42 40 37 35 34 34 35 34 34 36 36 35 33 33 34 33 30 32 35 41 59 74 82 95 99 96 95 95 94 92 90 86
83 86 88 90 91 93 93 94 95 95 94 92 89 87 84 82 79 78 77 73 70 66 63 60 55 49 41 39 40 40 40 49 61 66 66 66 69 67 63 58 52 46 42 40 39 39 38 35 31 27 27 28 34 40 40 39 36 34 34 34 34 33 35 37 36 35 34 34 34 34 34 36 41 56 72 79 93 105 104 101 101 99 98 94 91
79 82 85 87 88 89 90 90 90 90 89 87 86 84 83 82 81 79 77 74 72 68 64 60 54 50 48 52 58 58 61 66 71 72 69 66 64 63 61 57 52 46 41 37 36 36 36 35 30 26 28 28 31 36 36 36 36 34 33 33 34 33 33 37 38 36 36 35 35 37 37 37 41 55 73 78 87 105 112 109 106 103 100 96 92
75 78 80 82 84 84 85 86 86 86 85 85 85 85 85 84 83 81 79 77 74 71 68 65 63 62 64 68 70 68 70 74 75 73 70 65 61 58 55 52 49 44 40 36 35 33 34 35 30 28 30 30 29 33 34 34 34 32 32 32 33 33 32 37 40 39 37 36 36 39 40 39 42 55 74 79 80 94 110 115 109 104 100 96 95
71 74 76 78 79 80 81 81 82 83 83 84 84 84 84 82 80 78 74 72 68 67 67 67 70 71 72 75 80 78 74 76 76 74 72 67 61 56 51 48 45 43 39 35 35 34 34 33 31 31 34 32 28 28 31 33 31 30 31 31 31 32 32 36 40 40 39 38 38 40 43 41 43 55 73 79 78 83 99 117 117 110 104 100 99
70 70 72 74 76 77 78 79 78 78 77 77 76 75 76 75 74 73 69 65 61 61 60 62 66 71 75 78 82 83 78 77 75 72 70 66 61 56 51 47 44 41 38 35 36 36 34 31 29 33 37 34 30 27 29 32 29 27 30 30 30 31 33 35 38 39 40 41 40 42 45 45 45 55 73 80 78 80 88 107 122 119 111 106 105
70 69 69 71 72 74 75 76 75 74 71 69 66 65 64 64 66 66 66 65 63 63 62 62 64 67 73 77 80 82 81 80 76 70 65 62 59 54 50 48 44 40 37 35 38 38 34 29 26 32 37 33 29 28 29 32 30 28 30 30 29 31 35 36 36 36 37 40 42 45 48 48 48 55 72 80 79 79 83 96 117 126 124 117 112
71 69 69 69 69 70 71 72 72 71 69 67 65 63 62 61 62 62 62 65 66 66 67 67 68 68 69 73 77 79 79 80 77 71 64 61 61 57 51 48 45 43 39 37 41 38 31 28 26 30 34 29 25 25 29 32 31 30 32 32 31 32 37 39 36 34 34 37 41 47 51 52 51 57 72 81 79 79 82 90 108 126 133 129 122
71 70 69 68 67 67 68 69 69 68 67 66 65 64 63 63 63 63 62 64 65 66 67 68 71 72 71 71 72 72 71 71 70 68 65 62 61 59 54 48 46 44 40 42 45 40 31 28 28 29 27 23 21 23 28 32 32 33 36 34 32 35 39 41 37 33 32 34 38 47 54 54 53 59 73 81 80 79 82 88 99 117 131 135 132
70 70 69 68 68 66 66 66 66 66 66 65 64 64 64 64 64 64 63 62 63 64 65 65 66 70 72 72 70 68 63 58 55 54 54 52 51 51 50 46 43 39 38 44 44 38 36 32 30 30 23 17 18 21 27 32 34 36 38 37 35 38 42 41 39 35 33 33 36 46 56 56 56 61 74 82 80 79 82 88 96 108 122 132 135
69 69 69 68 68 68 66 65 65 66 66 65 64 63 63 62 63 63 63 63 62 62 63 63 63 64 66 69 69 67 63 57 53 49 45 42 42 43 43 43 44 38 36 41 38 35 40 39 32 31 21 13 17 24 27 32 37 39 40 40 39 42 44 42 39 38 36 34 36 46 56 58 59 64 74 81 81 80 82 88 96 104 114 124 130
68 69 69 69 69 69 68 67 66 66 66 66 65 64 64 63 63 63 63 63 63 63 62 62 62 62 62 63 64 65 64 61 58 54 48 43 41 43 44 46 51 47 40 40 37 36 43 41 35 29 17 13 21 25 27 33 40 41 42 43 44 46 47 43 40 39 37 36 39 48 57 59 62 67 75 80 81 80 81 87 94 101 108 115 121
67 68 69 70 71 71 71 70 68 68 67 67 67 67 66 65 64 64 65 65 65 65 65 64 63 62 62 61 61 62 63 62 61 59 55 50 46 47 51 55 60 61 54 45 40 40 43 43 42 33 18 20 29 27 28 37 42 43 45 47 48 49 48 44 42 40 39 41 45 53 57 61 65 71 76 80 80 80 81 85 92 98 103 108 113
68 68 68 69 71 73 74 73 72 71 69 69 70 71 70 68 68 68 68 68 68 68 67 67 66 65 64 63 62 63 63 62 62 62 61 59 55 52 54 59 65 68 65 57 50 48 48 48 49 42 30 32 40 38 34 39 44 47 49 50 49 50 50 48 46 44 43 47 53 57 59 62 67 72 77 79 80 81 83 85 90 95 100 104 107
69 68 67 67 69 71 73 74 74 72 71 71 72 73 73 72 73 72 72 71 71 70 70 70 69 69 68 67 67 66 66 64 63 63 63 64 62 60 59 61 64 67 69 67 59 53 52 52 51 49 43 43 49 52 49 48 49 51 53 53 52 52 52 52 52 50 50 54 58 61 62 63 67 71 75 78 80 82 84 86 89 92 96 100 103
70 69 68 66 65 66 69 71 71 71 72 72 73 74 74 75 75 75 74 73 73 72 72 72 71 71 72 71 70 69 69 68 67 66 66 66 66 65 65 64 64 65 66 66 63 58 56 54 53 52 50 51 54 57 58 55 54 56 57 56 53 54 56 56 57 57 57 59 62 64 65 66 68 71 73 76 79 81 84 86 88 91 93 96 99
72 70 69 67 63 62 63 66 67 68 69 70 71 72 73 73 73 74 73 73 72 71 71 71 70 70 70 71 71 71 71 70 69 69 68 68 68 68 68 67 66 64 63 64 65 63 59 55 54 55 54 56 58 60 61 59 60 62 61 59 56 56 60 62 61 62 62 62 63 64 66 67 68 70 71 73 75 78 81 83 86 88 90 93 95
76 74 71 68 65 61 59 61 62 64 65 65 67 69 69 70 70 70 70 70 70 68 67 67 67 67 67 68 68 69 69 69 69 68 68 68 68 68 68 67 67 65 62 62 62 61 61 58 56 57 58 60 62 65 66 64 65 65 63 65 64 60 63 65 65 66 65 64 65 65 66 67 67 69 70 71 73 75 77 80 82 85 87 89 91
79 77 75 72 69 64 59 57 58 60 60 60 61 62 63 65 66 66 65 66 67 66 65 65 65 65 65 65 66 66 66 66 66 67 67 67 67 67 66 66 67 67 64 62 61 58 59 60 60 62 63 65 66 68 70 70 70 72 72 72 70 65 66 67 67 67 67 66 66 66 67 67 67 69 69 70 72 73 75 78 80 82 84 86 88
83 81 79 77 74 69 62 57 55 55 56 55 55 56 57 58 61 62 61 61 63 63 64 65 65 64 65 65 66 66 66 66 66 66 67 67 67 67 66 66 67 68 68 66 65 62 62 63 65 67 69 71 72 73 74 73 72 75 77 76 74 70 68 68 68 68 68 67 67 67 68 68 69 69 70 71 73 74 76 77 79 81 82 84 86
84 85 85 83 80 77 71 64 56 52 52 52 51 50 50 51 53 56 57 58 59 60 61 62 63 64 64 65 66 66 67 67 67 68 67 67 67 67 67 67 67 68 68 70 70 69 69 69 70 71 73 76 78 79 80 78 76 76 77 76 76 73 71 71 70 70 70 69 69 69 69 69 70 70 71 72 73 75 77 78 80 82 83 85 87
80 87 89 90 87 83 79 74 66 56 52 51 50 48 47 46 45 48 50 52 54 55 57 58 59 60 61 62 64 65 65 66 67 68 68 68 68 68 68 68 68 68 68 71 73 73 74 74 75 77 79 81 82 83 82 82 80 78 78 78 77 76 75 74 74 73 74 73 73 73 73 73 72 73 73 74 76 77 78 79 81 82 84 86 87
77 84 90 95 96 92 89 83 78 70 60 53 49 47 45 44 42 41 42 43 46 49 51 53 55 57 59 60 61 62 63 65 66 67 68 69 71 71 71 72 72 72 72 73 76 77 78 80 82 84 85 86 87 86 86 86 85 83 82 81 80 80 79 78 78 78 78 78 78 77 77 77 77 77 77 78 79 80 81 82 83 85 86 87 89
77 81 87 94 100 102 100 94 89 83 76 64 56 51 46 43 41 39 38 37 38 40 44 46 49 52 55 57 58 60 62 65 66 67 69 70 72 74 75 76 76 77 77 79 81 82 84 87 90 91 92 92 92 92 92 91 90 89 87 86 86 85 84 84 84 83 83 83 82 82 81 80 80 80 80 80 81 82 83 84 85 86 87 88 89
83 80 85 93 103 109 111 109 105 99 91 81 69 60 53 46 42 39 37 35 34 34 36 38 41 45 49 53 56 58 60 63 66 68 69 71 73 75 77 78 81 82 83 85 88 89 92 95 98 99 100 100 99 98 97 96 94 93 91 90 89 88 88 88 87 86 86 85 85 84 84 83 82 81 81 81 81 82 83 84 85 86 87 87 88
104 93 87 93 105 116 123 126 124 120 112 103 90 76 64 55 46 39 36 36 35 32 30 31 33 36 41 46 52 55 58 61 63 66 69 72 75 78 80 81 83 86 89 91 94 97 100 103 106 107 107 106 105 103 101 99 97 95 93 92 91 89 88 87 86 85 85 84 84 84 84 83 82 82 81 81 81 81 81 82 83 84 85 85 86
254 172 125 115 117 131 143 148 148 146 140 133 124 109 87 67 55 41 33 34 35 32 28 25 25 28 31 36 43 49 54 59 62 65 69 73 76 80 84 86 88 91 94 97 100 105 108 111 113 114 113 112 110 107 104 101 98 96 94 92 91 89 88 86 84 83 82 81 81 81 80 80 80 80 80 80 79 79 79 79 80 81 81 82 82
276 264 241 210 179 166 170 177 177 173 168 163 158 156 152 149 89 38 23 18 25 28 26 22 19 19 21 26 31 39 48 56 63 66 70 74 78 81 85 89 92 96 101 105 108 112 116 120 121 121 121 118 115 112 109 106 102 98 95 93 90 88 87 86 84 82 80 79 78 77 77 77 77 76 76 75 75 74 74 74 75 75 75 76 76
263 262 257 251 241 227 221 221 215 206 199 189 182 181 182 195 218 241 270 313 333 348 1 9 10 12 15 16 21 28 37 51 62 69 73 76 79 82 86 92 97 103 109 114 118 121 125 128 130 129 128 125 122 118 115 111 107 102 98 94 92 90 88 86 84 83 81 79 78 77 76 76 75 74 73 71 70 69 68 67 67 67 67 67 67
261 260 258 259 260 259 258 256 251 243 234 224 210 201 195 197 210 228 248 260 267 273 280 291 307 340 1 10 17 24 32 49 64 75 80 81 82 84 86 92 101 109 117 123 128 132 135 137 139 138 136 132 129 124 119 115 111 107 102 98 94 92 89 86 84 83 82 81 79 77 76 75 74 73 71 70 68 67 66 64 63 62 62 61 60
265 264 263 264 265 265 265 268 272 272 266 259 249 235 220 207 205 212 226 245 260 269 273 272 270 268 264 257 257 247 154 90 90 96 98 96 92 90 90 94 102 113 123 131 138 143 146 147 148 147 146 142 138 133 128 121 116 110 103 99 94 89 87 84 81 79 79 78 76 74 73 72 70 68 67 66 65 64 62 61 60 58 56 55 54
263 261 262 263 265 265 264 264 267 274 280 278 271 263 253 240 226 219 218 226 240 258 272 278 278 276 271 264 255 244 231 218 198 155 127 109 100 103 104 105 109 117 128 138 146 152 156 158 159 159 159 158 154 150 147 142 135 127 117 105 95 85 79 76 72 68 67 66 65 63 62 62 62 58 54 53 54 54 53 52 51 48 46 43 42
262 256 253 257 262 265 266 266 263 263 269 273 272 268 264 259 253 244 235 229 227 236 249 261 269 274 277 279 278 274 267 254 237 214 196 182 149 143 144 139 138 137 142 148 155 161 166 169 172 173 174 175 174 174 174 172 170 167 159 146 128 104 84 73 61 50 45 44 43 42 38 37 40 40 38 37 37 37 37 38 36 33 30 27 24
259 252 247 250 257 261 267 270 268 264 261 261 262 262 262 259 257 255 252 247 239 237 240 246 254 261 267 273 278 281 281 278 269 254 233 223 224 224 215 198 186 184 182 180 178 178 180 183 187 190 191 192 194 196 198 199 201 202 202 200 200 198 194 190 238 349 351 345 338 342 351 358 3 3 4 5 4 5 7 9 11 11 9 7 5
253 251 249 251 255 259 265 269 269 267 263 261 260 259 258 256 253 251 253 253 250 248 247 247 252 256 260 262 267 272 276 279 279 278 268 248 237 235 237 236 229 218 209 204 200 199 200 201 203 206 207 208 210 212 214 216 218 221 223 226 228 231 235 239 245 261 280 293 295 297 303 309 318 323 324 325 326 329 331 334 338 341 342 344 345
252 253 254 255 256 258 262 265 268 268 266 265 265 263 261 258 254 251 249 249 250 250 249 250 252 255 258 261 263 266 268 271 275 277 277 271 259 248 241 241 241 238 232 224 216 211 211 214 217 219 221 222 224 225 226 227 229 230 232 235 236 239 243 248 252 257 264 275 282 286 290 293 298 302 304 305 306 308 311 313 315 318 321 324 327
254 255 256 257 257 258 260 261 263 266 267 267 266 264 261 258 255 253 251 249 248 249 250 251 251 252 254 257 261 265 266 266 267 268 271 272 271 266 259 252 248 247 245 241 234 226 222 223 226 228 231 233 235 237 238 238 238 238 239 241 243 244 244 248 254 259 262 267 273 279 284 288 291 292 294 296 299 300 301 303 304 306 308 310 312
255 256 258 259 259 259 260 259 259 260 262 263 263 261 258 255 254 253 253 252 251 250 250 250 252 253 253 254 256 260 264 265 265 264 266 268 270 271 269 267 263 259 257 255 250 243 238 237 235 236 239 240 242 245 247 247 247 246 246 247 250 251 251 251 255 259 262 266 269 273 278 281 285 286 287 289 292 294 295 294 295 296 299 301 301
253 255 257 259 258 258 259 259 257 255 254 255 259 260 257 253 253 253 253 253 253 252 250 249 250 251 253 254 254 255 259 262 263 262 262 262 264 266 267 268 268 267 265 265 265 260 254 250 247 246 246 248 249 250 252 253 253 253 252 252 254 257 258 258 258 259 263 267 270 271 273 275 277 280 283 283 284 286 287 288 287 287 288 290 292
251 252 253 254 254 254 255 256 254 251 249 249 252 255 255 252 251 251 251 251 251 252 251 250 248 249 250 252 252 252 254 257 259 259 259 260 261 263 265 267 267 268 268 270 272 272 268 265 261 257 254 254 255 256 258 259 260 259 259 257 258 260 262 262 263 263 263 265 268 271 273 273 273 275 278 280 283 283 284 285 286 285 284 283 282
250 251 251 250 249 248 249 250 251 250 247 246 246 249 252 252 251 250 249 249 250 251 252 251 250 249 250 252 252 251 251 252 253 254 256 257 259 260 263 265 268 270 270 270 271 272 273 273 273 270 266 262 261 261 264 267 268 268 268 267 265 265 266 266 267 267 266 264 265 269 274 277 277 276 274 275 278 281 282 284 286 286 286 283 280
Height
10968 10968 10970 10971 10973 10974 10975 10976 10976 10977 10978 10979 10979 10979 10980 10979 10977 10976 10976 10977 10977 10976 10976 10975 10975 10975 10974 10974 10973 10973 10972 10971 10970 10970 10970 10969 10968 10967 10967 10966 10965 10964 10963 10962 10961 10959 10958 10956 10954 10952 10950 10949 10946 10944 10942 10939 10937 10934 10932 10930 10928 10926 10923 10920 10918 10915 10912 10910 10908 10907 10905 10904 10902 10900 10901 10900 10897 10892 10887 10882 10877 10873 10867 10858 10847
10970 10970 10970 10971 10972 10974 10975 10976 10977 10977 10978 10979 10979 10979 10979 10978 10976 10977 10977 10978 10978 10977 10976 10976 10976 10976 10975 10975 10974 10973 10973 10972 10971 10971 10971 10970 10969 10968 10968 10967 10966 10965 10964 10963 10962 10960 10959 10957 10955 10953 10951 10949 10947 10945 10943 10940 10938 10935 10933 10931 10929 10927 10924 10921 10919 10916 10914 10911 10909 10908 10906 10904 10903 10903 10903 10903 10900 10895 10891 10886 10883 10880 10874 10867 10859
10971 10971 10971 10972 10973 10974 10975 10976 10977 10977 10978 10978 10979 10978 10978 10977 10977 10978 10979 10979 10978 10978 10977 10977 10977 10977 10976 10976 10975 10974 10973 10973 10972 10972 10971 10971 10970 10969 10969 10968 10968 10966 10965 10964 10963 10961 10960 10958 10956 10954 10952 10950 10948 10946 10944 10941 10939 10936 10934 10932 10930 10928 10925 10923 10920 10917 10915 10913 10911 10909 10906 10904 10904 10904 10904 10904 10901 10898 10894 10891 10888 10885 10880 10875 10869
10972 10973 10973 10973 10974 10974 10975 10976 10977 10977 10978 10978 10978 10978 10978 10978 10979 10980 10980 10979 10979 10979 10978 10978 10978 10977 10977 10976 10976 10975 10974 10974 10973 10973 10972 10972 10971 10971 10970 10969 10968 10967 10966 10965 10964 10962 10961 10959 10957 10955 10953 10951 10949 10947 10944 10942 10940 10937 10935 10933 10931 10929 10927 10924 10922 10919 10916 10914 10912 10910 10908 10906 10905 10905 10905 10904 10902 10900 10897 10895 10893 10890 10886 10882 10877
10973 10973 10974 10974 10975 10975 10976 10977 10977 10978 10978 10978 10979 10979 10980 10980 10980 10980 10980 10980 10980 10980 10979 10979 10978 10978 10978 10977 10977 10976 10975 10974 10974 10974 10973 10973 10972 10972 10971 10970 10969 10968 10967 10966 10965 10963 10962 10960 10958 10956 10954 10952 10950 10947 10945 10943 10941 10938 10936 10934 10932 10930 10928 10925 10923 10921 10918 10915 10913 10911 10909 10908 10906 10905 10905 10904 10903 10902 10900 10898 10897 10894 10891 10887 10884
10973 10974 10975 10975 10976 10977 10977 10978 10978 10979 10979 10979 10979 10980 10981 10981 10981 10981 10981 10981 10981 10981 10980 10980 10979 10979 10978 10978 10977 10977 10976 10975 10975 10975 10974 10974 10973 10973 10972 10971 10970 10969 10968 10967 10966 10964 10963 10961 10959 10957 10954 10952 10950 10948 10947 10944 10942 10940 10937 10935 10933 10931 10928 10926 10924 10922 10920 10917 10914 10913 10910 10908 10907 10906 10905 10904 10904 10904 10902 10901 10900 10898 10895 10893 10890
10975 10976 10976 10977 10978 10978 10979 10979 10979 10979 10980 10980 10980 10981 10981 10982 10982 10983 10983 10982 10982 10981 10981 10980 10980 10980 10979 10979 10978 10977 10977 10976 10976 10976 10975 10975 10974 10974 10973 10972 10971 10970 10969 10968 10967 10966 10964 10962 10960 10958 10956 10954 10951 10949 10948 10946 10943 10941 10939 10936 10934 10932 10929 10927 10925 10923 10921 10919 10916 10914 10911 10909 10908 10907 10906 10906 10906 10905 10904 10903 10903 10901 10899 10897 10895
10979 10979 10980 10980 10980 10980 10980 10980 10981 10981 10981 10982 10982 10983 10983 10983 10984 10984 10984 10983 10983 10982 10982 10981 10981 10980 10980 10979 10979 10978 10978 10977 10977 10977 10976 10976 10975 10975 10974 10973 10972 10971 10971 10969 10968 10967 10965 10963 10961 10959 10957 10955 10953 10950 10948 10947 10945 10942 10940 10938 10935 10933 10931 10928 10926 10924 10922 10920 10917 10915 10913 10911 10909 10908 10907 10907 10907 10906 10906 10906 10905 10904 10903 10902 10900
10983 10983 10983 10983 10983 10983 10983 10983 10983 10983 10984 10984 10984 10984 10984 10984 10985 10985 10985 10984 10983 10983 10982 10982 10981 10981 10980 10980 10980 10979 10979 10978 10978 10977 10977 10977 10976 10976 10975 10974 10973 10972 10972 10971 10969 10968 10966 10964 10962 10960 10959 10956 10954 10952 10950 10948 10946 10944 10941 10939 10937 10935 10933 10930 10927 10925 10923 10921 10919 10916 10914 10912 10910 10909 10909 10909 10909 10909 10908 10908 10907 10907 10906 10906 10905
10986 10986 10986 10986 10986 10986 10986 10985 10986 10986 10986 10986 10986 10986 10986 10986 10986 10985 10985 10985 10984 10984 10983 10983 10982 10981 10981 10981 10980 10980 10980 10979 10979 10978 10978 10978 10977 10977 10976 10975 10974 10973 10973 10972 10970 10969 10967 10965 10963 10962 10960 10958 10956 10953 10951 10949 10947 10945 10942 10941 10939 10936 10934 10932 10930 10927 10925 10922 10920 10918 10916 10914 10912 10910 10910 10910 10910 10910 10910 10910 10909 10909 10909 10909 10909
10989 10989 10989 10989 10989 10988 10988 10988 10988 10988 10988 10988 10988 10987 10987 10987 10987 10986 10986 10986 10985 10985 10984 10983 10983 10982 10982 10982 10981 10981 10980 10980 10979 10979 10979 10979 10978 10977 10976 10976 10975 10974 10974 10973 10971 10970 10968 10967 10965 10963 10961 10959 10957 10955 10953 10950 10948 10946 10944 10942 10940 10938 10936 10934 10931 10929 10926 10924 10922 10920 10918 10915 10913 10912 10911 10911 10911 10912 10912 10912 10912 10912 10912 10912 10911
10993 10992 10992 10992 10991 10991 10991 10991 10990 10990 10990 10989 10989 10989 10989 10988 10988 10987 10987 10986 10986 10985 10985 10984 10983 10983 10982 10982 10981 10981 10981 10980 10980 10980 10980 10979 10979 10978 10977 10977 10976 10975 10975 10974 10972 10971 10969 10968 10966 10964 10962 10960 10958 10956 10954 10952 10949 10947 10945 10942 10940 10939 10937 10935 10933 10931 10928 10926 10924 10922 10920 10918 10916 10914 10913 10912 10913 10913 10914 10914 10914 10915 10915 10914 10914
10996 10996 10995 10995 10994 10994 10993 10993 10992 10992 10991 10991 10991 10990 10990 10989 10989 10988 10987 10987 10986 10986 10985 10984 10984 10983 10983 10982 10982 10982 10982 10981 10981 10981 10980 10980 10979 10979 10978 10977 10977 10976 10975 10974 10973 10972 10970 10969 10967 10965 10963 10961 10959 10957 10955 10953 10951 10948 10946 10944 10941 10939 10938 10936 10934 10932 10930 10928 10926 10924 10922 10920 10918 10916 10915 10914 10914 10914 10915 10915 10916 10916 10916 10916 10916
11000 10999 10998 10997 10997 10996 10996 10995 10995 10994 10993 10993 10992 10992 10991 10991 10990 10989 10988 10988 10987 10987 10986 10985 10984 10984 10984 10983 10983 10983 10983 10982 10982 10982 10981 10981 10980 10979 10978 10978 10977 10976 10976 10975 10974 10972 10971 10969 10968 10966 10964 10962 10960 10958 10957 10955 10952 10950 10947 10945 10942 10940 10939 10937 10935 10933 10931 10929 10927 10925 10923 10922 10920 10918 10917 10916 10915 10915 10916 10916 10917 10917 10918 10918 10918
11003 11002 11001 11000 11000 10999 10998 10997 10997 10996 10995 10995 10994 10994 10993 10992 10991 10990 10990 10989 10988 10988 10987 10986 10986 10985 10985 10984 10984 10984 10984 10983 10983 10982 10982 10981 10980 10980 10979 10978 10978 10977 10976 10975 10974 10973 10972 10970 10969 10967 10966 10963 10961 10959 10958 10956 10954 10951 10949 10946 10944 10941 10939 10938 10936 10934 10932 10931 10929 10927 10925 10923 10921 10919 10918 10917 10917 10916 10917 10917 10918 10918 10919 10919 10920
11006 11005 11004 11003 11002 11001 11000 11000 10999 10998 10998 10997 10996 10995 10994 10994 10993 10992 10991 10990 10990 10989 10988 10987 10987 10986 10985 10985 10985 10984 10984 10984 10983 10983 10982 10982 10981 10980 10979 10979 10978 10978 10977 10976 10975 10974 10972 10971 10970 10968 10967 10965 10963 10961 10959 10957 10955 10953 10951 10948 10945 10943 10941 10939 10937 10935 10933 10932 10930 10928 10926 10925 10923 10921 10920 10919 10918 10918 10918 10918 10919 10920 10920 10921 10922
11008 11007 11006 11006 11005 11004 11003 11002 11001 11000 11000 10999 10998 10997 10996 10995 10994 10993 10992 10991 10991 10990 10989 10989 10988 10987 10986 10986 10985 10985 10985 10984 10984 10983 10983 10982 10981 10981 10980 10979 10979 10978 10977 10977 10975 10974 10973 10972 10971 10970 10968 10966 10964 10962 10960 10958 10956 10954 10952 10950 10947 10944 10942 10940 10938 10936 10934 10933 10931 10929 10928 10926 10924 10923 10922 10921 10920 10920 10919 10919 10920 10921 10922 10923 10923
11009 11009 11008 11008 11007 11006 11005 11004 11003 11002 11001 11001 11000 10999 10998 10997 10995 10994 10994 10993 10992 10991 10991 10990 10989 10988 10987 10987 10986 10986 10985 10985 10985 10984 10984 10983 10982 10981 10981 10980 10979 10979 10978 10977 10976 10975 10975 10974 10973 10971 10970 10968 10966 10964 10962 10960 10958 10956 10954 10952 10949 10946 10944 10942 10939 10937 10936 10934 10932 10930 10929 10927 10926 10924 10923 10923 10922 10922 10921 10921 10921 10922 10923 10924 10925
11011 11010 11010 11009 11008 11008 11006 11005 11004 11003 11003 11002 11001 11000 10999 10998 10997 10996 10995 10994 10993 10993 10992 10991 10990 10989 10989 10988 10987 10987 10986 10986 10985 10985 10984 10984 10983 10982 10981 10981 10980 10979 10979 10978 10977 10977 10976 10975 10974 10973 10972 10969 10967 10965 10963 10962 10959 10957 10955 10953 10951 10948 10945 10943 10941 10939 10937 10935 10933 10932 10930 10929 10927 10926 10925 10925 10924 10924 10923 10923 10923 10923 10924 10925 10926
11012 11012 11011 11010 11010 11009 11008 11007 11006 11005 11004 11003 11003 11002 11001 10999 10998 10997 10997 10996 10995 10994 10993 10992 10992 10991 10990 10989 10988 10988 10987 10987 10986 10986 10985 10985 10984 10983 10982 10981 10980 10980 10979 10979 10978 10978 10977 10975 10975 10975 10974 10971 10969 10967 10966 10964 10961 10959 10957 10955 10953 10950 10947 10945 10943 10941 10939 10937 10935 10933 10932 10930 10929 10928 10927 10927 10927 10926 10925 10925 10924 10925 10925 10926 10927
11014 11013 11012 11012 11011 11010 11009 11008 11007 11006 11006 11005 11004 11003 11002 11001 11000 10999 10998 10997 10996 10995 10994 10994 10993 10992 10991 10990 10990 10989 10988 10988 10987 10987 10986 10985 10985 10984 10983 10982 10981 10981 10981 10980 10979 10979 10977 10976 10976 10976 10975 10973 10971 10970 10968 10966 10963 10961 10959 10957 10955 10952 10949 10947 10945 10943 10941 10939 10937 10935 10934 10932 10931 10930 10929 10929 10929 10928 10928 10927 10926 10926 10927 10928 10928
11016 11015 11014 11013 11012 11011 11010 11010 11009 11008 11007 11006 11005 11005 11004 11003 11002 11001 11000 10999 10998 10997 10996 10995 10994 10993 10993 10992 10991 10990 10989 10988 10988 10987 10987 10986 10985 10984 10984 10983 10982 10982 10982 10981 10980 10979 10978 10978 10977 10976 10975 10973 10972 10971 10970 10967 10965 10963 10961 10959 10957 10954 10952 10949 10947 10945 10943 10941 10939 10937 10936 10934 10933 10932 10931 10931 10931 10931 10930 10929 10929 10928 10929 10929 10930
11018 11017 11016 11015 11014 11013 11012 11011 11010 11009 11008 11007 11007 11006 11005 11005 11004 11003 11002 11001 11000 10998 10997 10997 10996 10995 10994 10993 10992 10991 10990 10989 10988 10988 10987 10986 10986 10985 10984 10983 10983 10983 10982 10982 10981 10980 10979 10978 10977 10976 10976 10974 10973 10972 10970 10968 10967 10965 10963 10961 10959 10956 10954 10952 10950 10948 10945 10943 10941 10939 10938 10936 10935 10934 10934 10934 10933 10933 10933 10932 10931 10931 10931 10931 10931
11020 11019 11018 11016 11015 11014 11013 11012 11011 11011 11010 11009 11008 11007 11006 11006 11005 11005 11004 11003 11002 11001 10999 10998 10997 10996 10995 10994 10993 10992 10991 10990 10989 10989 10988 10987 10986 10986 10985 10984 10983 10983 10982 10982 10981 10980 10979 10978 10978 10977 10976 10975 10973 10973 10972 10971 10969 10967 10965 10963 10961 10959 10957 10954 10952 10950 10948 10946 10944 10942 10940 10939 10938 10937 10937 10936 10936 10935 10935 10935 10934 10934 10933 10933 10933
11022 11021 11020 11018 11017 11016 11015 11014 11013 11012 11011 11010 11009 11009 11008 11007 11007 11006 11006 11005 11004 11003 11002 11000 10999 10998 10997 10996 10995 10994 10993 10992 10991 10990 10989 10988 10987 10986 10986 10985 10985 10984 10983 10982 10982 10981 10980 10979 10979 10978 10977 10976 10974 10974 10975 10974 10971 10969 10967 10965 10963 10961 10959 10957 10955 10953 10951 10949 10946 10945 10943 10942 10941 10940 10940 10939 10939 10938 10938 10937 10937 10937 10936 10936 10936
11024 11023 11022 11021 11019 11018 11017 11016 11015 11014 11013 11012 11011 11011 11010 11009 11008 11008 11007 11007 11006 11005 11004 11002 11001 11000 10998 10997 10996 10996 10995 10994 10993 10992 10991 10990 10988 10988 10987 10987 10986 10985 10984 10983 10983 10983 10982 10981 10980 10979 10978 10977 10976 10976 10977 10976 10974 10972 10970 10968 10967 10965 10962 10960 10958 10956 10954 10952 10950 10948 10947 10945 10944 10944 10943 10943 10942 10941 10941 10940 10940 10940 10939 10939 10939
11026 11025 11024 11023 11021 11020 11019 11018 11017 11016 11015 11014 11014 11013 11012 11011 11011 11010 11009 11009 11008 11007 11006 11004 11003 11002 11001 10999 10998 10998 10997 10996 10995 10994 10993 10992 10991 10990 10989 10988 10988 10987 10986 10985 10985 10985 10984 10983 10982 10981 10980 10979 10978 10979 10979 10978 10977 10974 10972 10972 10971 10969 10966 10963 10961 10959 10957 10955 10953 10952 10950 10949 10948 10947 10946 10946 10946 10945 10944 10944 10943 10943 10943 10942 10942
11027 11026 11026 11025 11023 11022 11021 11020 11019 11018 11017 11017 11016 11015 11014 11013 11013 11012 11011 11011 11010 11009 11008 11007 11006 11004 11003 11002 11001 11000 10999 10998 10997 10996 10995 10994 10993 10992 10991 10990 10989 10989 10989 10988 10987 10987 10986 10985 10984 10983 10982 10981 10981 10981 10981 10981 10979 10976 10975 10975 10975 10973 10969 10967 10965 10963 10961 10959 10957 10956 10954 10953 10952 10951 10950 10950 10949 10949 10948 10948 10947 10946 10946 10946 10945
11028 11028 11027 11026 11025 11024 11023 11022 11021 11020 11020 11019 11018 11017 11016 11015 11015 11014 11014 11013 11012 11011 11010 11009 11008 11007 11005 11004 11003 11002 11001 11001 10999 10998 10997 10996 10995 10994 10993 10993 10992 10992 10991 10990 10989 10988 10987 10986 10986 10985 10984 10983 10983 10983 10983 10983 10981 10979 10978 10978 10979 10977 10973 10970 10969 10966 10965 10963 10961 10960 10958 10957 10956 10955 10954 10954 10953 10952 10952 10951 10951 10950 10950 10949 10949
11029 11029 11028 11027 11027 11026 11025 11024 11023 11022 11021 11021 11020 11019 11019 11018 11017 11016 11015 11015 11014 11013 11012 11011 11010 11009 11008 11007 11006 11005 11004 11003 11002 11001 11000 10999 10998 10997 10996 10995 10994 10994 10993 10992 10991 10991 10989 10988 10987 10987 10987 10986 10986 10986 10986 10986 10984 10982 10982 10982 10981 10980 10977 10974 10973 10971 10969 10968 10966 10965 10963 10962 10961 10960 10959 10958 10957 10957 10956 10956 10955 10954 10954 10954 10953
11031 11030 11029 11028 11028 11027 11027 11026 11025 11024 11023 11022 11022 11021 11021 11020 11019 11018 11017 11016 11015 11014 11014 11013 11012 11011 11010 11009 11008 11007 11006 11005 11004 11003 11002 11001 11000 10999 10998 10997 10996 10996 10995 10994 10993 10993 10992 10991 10990 10990 10990 10989 10989 10990 10989 10989 10988 10986 10985 10984 10984 10983 10981 10979 10977 10975 10974 10973 10972 10970 10969 10968 10967 10965 10964 10964 10963 10962 10961 10960 10960 10959 10959 10958 10958
11031 11031 11030 11029 11029 11028 11028 11027 11026 11025 11025 11024 11023 11023 11022 11021 11021 11020 11019 11018 11017 11016 11015 11014 11014 11013 11012 11011 11010 11010 11008 11007 11006 11005 11005 11004 11003 11002 11001 11000 10999 10998 10998 10997 10996 10995 10995 10994 10993 10993 10993 10993 10993 10993 10992 10993 10992 10990 10989 10988 10987 10986 10985 10984 10982 10981 10980 10979 10978 10977 10975 10974 10973 10972 10971 10970 10969 10968 10967 10966 10965 10965 10964 10964 10964
11032 11031 11031 11030 11030 11029 11029 11028 11027 11026 11026 11025 11025 11024 11023 11023 11022 11022 11021 11020 11019 11018 11017 11016 11015 11014 11014 11013 11012 11011 11010 11009 11009 11008 11007 11006 11005 11004 11003 11002 11001 11001 11000 10999 10999 10998 10998 10997 10997 10997 10997 10997 10997 10997 10996 10996 10996 10994 10993 10992 10992 10991 10990 10989 10988 10987 10986 10984 10983 10983 10982 10981 10980 10979 10978 10977 10976 10975 10974 10973 10972 10971 10971 10970 10970
11032 11032 11031 11031 11031 11030 11029 11029 11028 11027 11027 11026 11026 11025 11025 11024 11024 11023 11023 11022 11021 11020 11019 11018 11017 11016 11015 11015 11014 11013 11012 11011 11010 11010 11009 11008 11007 11006 11005 11004 11004 11003 11002 11002 11001 11001 11001 11001 11001 11001 11001 11001 11001 11000 11000 10999 10999 10998 10997 10997 10996 10995 10995 10994 10993 10992 10991 10990 10989 10989 10988 10987 10987 10986 10985 10984 10984 10983 10982 10981 10979 10979 10978 10978 10977
11032 11031 11031 11031 11031 11031 11030 11029 11029 11028 11028 11027 11026 11026 11026 11025 11025 11024 11024 11023 11022 11022 11021 11020 11019 11018 11017 11016 11016 11015 11014 11013 11012 11011 11011 11010 11009 11008 11007 11007 11006 11005 11005 11004 11004 11004 11004 11004 11004 11004 11004 11004 11004 11004 11004 11003 11003 11003 11002 11001 11001 11000 11000 10999 10998 10997 10996 10996 10995 10994 10993 10993 10993 10992 10992 10991 10991 10990 10989 10988 10987 10986 10986 10985 10985
11032 11031 11031 11031 11031 11030 11030 11029 11029 11028 11028 11028 11027 11027 11026 11026 11025 11025 11025 11024 11024 11023 11023 11022 11021 11020 11019 11018 11018 11017 11016 11015 11014 11013 11012 11012 11011 11010 11010 11009 11008 11008 11007 11007 11007 11007 11007 11007 11007 11008 11008 11008 11008 11008 11007 11007 11007 11007 11006 11005 11005 11004 11004 11003 11003 11002 11002 11001 11000 10999 10999 10998 10998 10998 10997 10997 10997 10996 10996 10995 10994 10993 10993 10992 10992
11031 11031 11030 11030 11030 11030 11030 11029 11029 11028 11028 11028 11027 11027 11027 11026 11026 11026 11025 11025 11024 11024 11024 11023 11023 11022 11021 11020 11020 11019 11018 11017 11016 11015 11014 11014 11013 11012 11012 11011 11011 11011 11010 11010 11010 11010 11010 11010 11011 11011 11011 11011 11011 11011 11011 11010 11010 11010 11010 11009 11009 11008 11008 11007 11007 11006 11006 11005 11005 11004 11004 11003 11003 11002 11002 11002 11001 11001 11001 11000 11000 10999 10998 10998 10998
11031 11030 11030 11030 11029 11029 11029 11029 11028 11028 11028 11027 11027 11027 11027 11027 11026 11026 11026 11025 11025 11025 11024 11024 11024 11023 11023 11022 11021 11021 11020 11019 11018 11017 11017 11016 11015 11015 11014 11014 11013 11013 11013 11013 11013 11013 11013 11013 11013 11013 11013 11013 11013 11013 11013 11013 11013 11013 11013 11012 11012 11011 11011 11011 11010 11010 11009 11009 11009 11008 11008 11007 11007 11006 11006 11006 11005 11005 11005 11004 11004 11004 11003 11003 11003
11029 11029 11029 11029 11029 11029 11028 11028 11028 11028 11027 11027 11026 11026 11026 11026 11026 11026 11026 11026 11025 11025 11024 11024 11024 11024 11024 11023 11023 11022 11021 11021 11020 11019 11018 11018 11017 11017 11017 11016 11016 11015 11015 11015 11015 11015 11016 11016 11015 11016 11016 11016 11016 11015 11015 11015 11015 11015 11015 11015 11014 11014 11014 11014 11013 11013 11012 11012 11012 11011 11011 11011 11010 11010 11010 11009 11009 11008 11008 11008 11007 11007 11007 11006 11006
11028 11028 11028 11028 11028 11028 11028 11028 11028 11028 11027 11027 11026 11025 11025 11025 11025 11026 11026 11026 11025 11025 11024 11024 11024 11024 11023 11023 11023 11022 11022 11021 11021 11020 11020 11020 11019 11019 11019 11018 11018 11017 11017 11017 11017 11017 11017 11017 11017 11017 11017 11017 11017 11017 11017 11017 11017 11017 11017 11017 11017 11016 11016 11016 11016 11015 11015 11015 11014 11014 11014 11014 11013 11013 11013 11012 11012 11012 11011 11011 11011 11010 11010 11010 11009
11026 11026 11027 11027 11027 11027 11028 11028 11028 11028 11028 11027 11026 11026 11025 11024 11024 11024 11025 11025 11025 11025 11024 11024 11024 11023 11023 11023 11023 11022 11022 11022 11021 11021 11021 11021 11021 11021 11021 11020 11020 11020 11019 11019 11019 11018 11018 11018 11018 11018 11018 11019 11019 11019 11019 11019 11019 11019 11019 11019 11019 11018 11018 11018 11018 11018 11017 11017 11017 11017 11016 11016 11016 11016 11015 11015 11015 11014 11014 11014 11014 11013 11013 11013 11012
11024 11024 11025 11025 11026 11026 11026 11027 11027 11028 11028 11028 11027 11026 11025 11025 11024 11024 11024 11024 11024 11024 11024 11024 11024 11023 11023 11023 11022 11022 11022 11022 11022 11022 11022 11022 11022 11022 11022 11022 11021 11021 11021 11021 11021 11020 11020 11020 11019 11019 11019 11019 11019 11019 11020 11020 11020 11020 11020 11020 11020 11020 11020 11020 11020 11020 11020 11019 11019 11019 11019 11018 11018 11018 11018 11017 11017 11017 11017 11017 11016 11016 11016 11015 11015
11021 11021 11022 11023 11024 11024 11024 11024 11025 11025 11026 11026 11026 11026 11025 11025 11025 11024 11024 11023 11023 11023 11023 11023 11023 11023 11023 11023 11023 11022 11022 11022 11022 11022 11022 11022 11022 11022 11022 11022 11022 11022 11022 11022 11022 11022 11021 11021 11020 11020 11020 11020 11020 11020 11020 11020 11020 11020 11021 11021 11021 11021 11021 11021 11021 11021 11021 11021 11021 11021 11020 11020 11020 11020 11020 11019 11019 11019 11019 11019 11019 11018 11018 11018 11017
11018 11018 11019 11020 11021 11021 11022 11022 11022 11023 11023 11023 11023 11023 11024 11023 11023 11023 11023 11023 11023 11022 11022 11022 11022 11022 11023 11023 11023 11022 11022 11022 11022 11022 11022 11022 11022 11022 11022 11022 11022 11022 11022 11022 11022 11022 11022 11021 11021 11021 11021 11020 11020 11020 11020 11020 11020 11021 11021 11021 11021 11021 11021 11021 11021 11021 11022 11021 11021 11021 11021 11021 11021 11021 11021 11021 11021 11020 11020 11020 11020 11020 11020 11019 11019
11014 11015 11016 11017 11018 11019 11019 11019 11020 11020 11020 11020 11020 11021 11021 11021 11022 11022 11022 11022 11022 11022 11021 11021 11021 11021 11021 11021 11021 11021 11021 11021 11022 11022 11022 11022 11022 11022 11021 11021 11021 11021 11021 11021 11021 11021 11021 11021 11021 11021 11020 11020 11020 11020 11020 11020 11020 11020 11020 11021 11021 11021 11021 11022 11022 11022 11022 11022 11022 11021 11021 11021 11021 11021 11021 11021 11021 11021 11021 11021 11021 11021 11021 11020 11020
11010 11011 11013 11014 11015 11015 11016 11017 11017 11017 11017 11017 11018 11018 11019 11019 11020 11020 11020 11020 11020 11020 11020 11020 11019 11019 11019 11019 11020 11019 11019 11020 11020 11021 11022 11022 11022 11021 11021 11020 11020 11019 11019 11019 11019 11020 11020 11020 11020 11020 11020 11020 11020 11020 11019 11019 11019 11019 11019 11020 11020 11020 11021 11021 11022 11022 11022 11022 11022 11021 11021 11021 11021 11021 11021 11021 11021 11021 11021 11021 11021 11021 11020 11020 11020
11006 11007 11009 11010 11011 11012 11013 11014 11014 11014 11013 11014 11015 11015 11016 11017 11017 11018 11018 11018 11019 11019 11019 11019 11018 11018 11018 11018 11018 11018 11017 11018 11018 11019 11020 11020 11020 11021 11020 11020 11019 11019 11018 11018 11018 11018 11018 11018 11018 11018 11019 11019 11019 11019 11019 11018 11018 11018 11018 11018 11019 11019 11020 11020 11021 11021 11021 11021 11021 11021 11021 11021 11021 11020 11020 11020 11020 11020 11020 11020 11020 11020 11020 11020 11020
11001 11003 11004 11006 11007 11008 11010 11011 11011 11010 11010 11010 11011 11011 11012 11013 11013 11014 11015 11016 11016 11017 11017 11017 11017 11017 11016 11016 11016 11016 11016 11016 11016 11017 11017 11017 11018 11019 11019 11019 11019 11018 11018 11017 11017 11017 11017 11017 11017 11017 11017 11017 11017 11017 11017 11017 11017 11017 11018 11018 11017 11018 11019 11019 11020 11020 11020 11020 11020 11020 11020 11020 11020 11020 11020 11019 11019 11019 11019 11019 11019 11019 11019 11019 11019
10997 10999 11001 11002 11002 11003 11005 11007 11006 11005 11005 11006 11006 11007 11008 11008 11009 11010 11011 11012 11013 11014 11014 11015 11015 11015 11014 11014 11014 11014 11013 11013 11014 11014 11014 11014 11015 11015 11016 11016 11017 11017 11016 11015 11015 11016 11015 11015 11015 11015 11015 11015 11015 11015 11015 11015 11015 11016 11016 11017 11016 11016 11017 11018 11018 11019 11019 11019 11019 11018 11019 11019 11019 11018 11018 11018 11018 11017 11017 11016 11017 11017 11017 11017 11017
10993 10995 10996 10997 10997 10997 11000 10999 10998 10999 11001 11002 11003 11004 11004 11004 11005 11006 11007 11008 11009 11010 11010 11011 11011 11012 11012 11012 11012 11012 11011 11011 11011 11011 11011 11011 11012 11012 11013 11013 11014 11014 11014 11013 11013 11013 11013 11013 11013 11013 11013 11013 11013 11013 11013 11013 11013 11013 11014 11015 11015 11015 11015 11016 11016 11017 11018 11018 11017 11016 11016 11017 11017 11017 11016 11016 11015 11015 11015 11014 11014 11014 11014 11014 11014
10987 10989 10991 10991 10990 10991 10993 10991 10989 10993 10997 10998 10999 11000 11000 11000 11001 11002 11003 11004 11005 11006 11007 11007 11008 11008 11008 11009 11009 11009 11008 11008 11008 11008 11008 11008 11009 11009 11010 11010 11011 11011 11011 11011 11011 11011 11011 11011 11011 11011 11011 11011 11011 11011 11012 11012 11012 11012 11012 11013 11013 11013 11013 11013 11014 11015 11015 11016 11016 11014 11013 11014 11015 11014 11014 11013 11013 11013 11013 11012 11011 11011 11012 11011 11011